Change the Weather History Date:

Wednesday, March 6, 2013

  Actual Average Record
Temperature  
Mean Temperature 47 °F 47 °F  
Max Temperature 50 °F 54 °F 75 °F (1905)
Min Temperature 43 °F 41 °F 28 °F (1918)
Degree Days  
Heating Degree Days 18 18  
Month to date heating degree days 106 108  
Since 1 July heating degree days 3144 3282  
Cooling Degree Days 0 0  
Month to date cooling degree days 0 0  
Year to date cooling degree days 0 0  
Moisture  
Dew Point 43 °F    
Average Humidity 94    
Maximum Humidity 100    
Minimum Humidity 80    
Precipitation  
Precipitation 0.60 in 0.26 in 1.26 in (1935)
Month to date precipitation 1.68 1.65  
Year to date precipitation 8.45 19.43  
Sea Level Pressure  
Sea Level Pressure 29.78 in    
Wind  
Wind Speed 8 mph (South)    
Max Wind Speed 14 mph    
Max Gust Speed 24 mph    
Visibility 10 miles    
Events      
T = Trace of Precipitation, MM = Missing Value Source: NWS Daily Summary

Daily Weather History Graph

Daily Weather History Graph

Search for Another Location

Airport or City:

Trip Planner

Search our weather history database for the weather conditions in past years. The results will help you decide how hot, cold, wet, or windy it might be!

Date:

Astronomy

Mar. 06, 2013 Rise Set
Actual Time 6:44 AM PST 6:12 PM PST
Civil Twilight 6:15 AM PST 6:41 PM PST
Nautical Twilight 5:42 AM PST 7:14 PM PST
Astronomical Twilight 5:09 AM PST 7:47 PM PST
Moon 3:05 AM PST (3/6) 12:53 PM PST (3/6)
Length of Visible Light 12h 25m
Length of Day
11h 28m
Waning Crescent, 29% of the Moon is Illuminated
Mar 6
Waning Crescent
Mar 11
New
Mar 19
First Quarter
Mar 27
Full
Apr 2
Last Quarter

Hourly Weather History & Observations

Time (PST) Temp. Windchill Dew Point Humidity Pressure Visibility Wind Dir Wind Speed Gust Speed Precip Events Conditions
12:15 AM 44.6 °F 42.2 °F 44.6 °F 100% 29.63 in 10.0 mi South 4.6 mph - 0.02 in   Overcast
12:35 AM 44.6 °F 41.4 °F 44.6 °F 100% 29.63 in 10.0 mi South 5.8 mph - 0.04 in   Overcast
12:55 AM 44.6 °F 41.4 °F 42.8 °F 93% 29.62 in 10.0 mi South 5.8 mph - 0.05 in   Overcast
1:15 AM 44.6 °F 43.1 °F 42.8 °F 93% 29.61 in 10.0 mi SSW 3.5 mph - 0.01 in   Overcast
1:35 AM 42.8 °F 41.1 °F 42.8 °F 100% 29.61 in 10.0 mi South 3.5 mph - 0.03 in   Overcast
1:55 AM 42.8 °F - 42.8 °F 100% 29.61 in 10.0 mi Calm Calm - 0.04 in   Overcast
2:15 AM 42.8 °F - 41.0 °F 93% 29.60 in 10.0 mi Calm Calm - N/A   Overcast
2:35 AM 42.8 °F - 41.0 °F 93% 29.60 in 10.0 mi Calm Calm - 0.01 in   Overcast
2:55 AM 42.8 °F 41.1 °F 41.0 °F 93% 29.59 in 10.0 mi SE 3.5 mph - 0.02 in   Overcast
3:15 AM 42.8 °F 40.1 °F 42.8 °F 100% 29.59 in 10.0 mi SE 4.6 mph - 0.03 in   Overcast
3:35 AM 42.8 °F - 42.8 °F 100% 29.58 in 10.0 mi Calm Calm - 0.04 in   Overcast
3:55 AM 42.8 °F 41.1 °F 42.8 °F 100% 29.58 in 10.0 mi SSE 3.5 mph - 0.05 in   Overcast
4:15 AM 42.8 °F 40.1 °F 41.0 °F 93% 29.58 in 10.0 mi South 4.6 mph - 0.01 in   Overcast
4:35 AM 42.8 °F 39.3 °F 42.8 °F 100% 29.58 in 10.0 mi SSE 5.8 mph - 0.04 in   Overcast
4:55 AM 42.8 °F 38.6 °F 41.0 °F 93% 29.59 in 10.0 mi SSE 6.9 mph - 0.07 in   Overcast
5:15 AM 42.8 °F 39.3 °F 41.0 °F 93% 29.59 in 10.0 mi South 5.8 mph - 0.03 in   Overcast
5:35 AM 42.8 °F 38.0 °F 42.8 °F 100% 29.60 in 10.0 mi South 8.1 mph - 0.04 in   Overcast
5:55 AM 42.8 °F 38.6 °F 41.0 °F 93% 29.60 in 10.0 mi SE 6.9 mph - 0.06 in   Overcast
6:15 AM 42.8 °F 38.6 °F 41.0 °F 93% 29.61 in 10.0 mi SSE 6.9 mph - 0.02 in   Overcast
6:35 AM 42.8 °F 38.0 °F 42.8 °F 100% 29.61 in 10.0 mi SSE 8.1 mph - 0.04 in   Overcast
6:55 AM 42.8 °F 38.6 °F 42.8 °F 100% 29.62 in 10.0 mi SSE 6.9 mph - 0.05 in   Overcast
7:15 AM 42.8 °F 37.5 °F 42.8 °F 100% 29.63 in 10.0 mi SSE 9.2 mph - N/A   Overcast
7:35 AM 42.8 °F 38.6 °F 42.8 °F 100% 29.64 in 10.0 mi South 6.9 mph - 0.01 in   Overcast
7:55 AM 42.8 °F 38.0 °F 42.8 °F 100% 29.65 in 10.0 mi SSE 8.1 mph - 0.02 in   Overcast
8:15 AM 42.8 °F 38.0 °F 42.8 °F 100% 29.67 in 10.0 mi South 8.1 mph - 0.01 in   Overcast
8:35 AM 42.8 °F 38.0 °F 42.8 °F 100% 29.68 in 10.0 mi SSE 8.1 mph - 0.02 in   Overcast
8:55 AM 42.8 °F 38.0 °F 41.0 °F 93% 29.69 in 10.0 mi South 8.1 mph - 0.02 in   Overcast
9:15 AM 44.6 °F 39.7 °F 42.8 °F 93% 29.71 in 10.0 mi South 9.2 mph - N/A   Overcast
9:35 AM 44.6 °F 38.4 °F 42.8 °F 93% 29.72 in 10.0 mi South 12.7 mph 17.3 mph 0.01 in   Mostly Cloudy
9:55 AM 44.6 °F 39.2 °F 42.8 °F 93% 29.73 in 9.0 mi South 10.4 mph 16.1 mph 0.05 in   Mostly Cloudy
10:15 AM 44.6 °F 39.2 °F 44.6 °F 100% 29.74 in 5.0 mi South 10.4 mph 16.1 mph 0.03 in   Overcast
10:35 AM 46.4 °F 40.7 °F 44.6 °F 93% 29.75 in 10.0 mi South 12.7 mph 21.9 mph 0.03 in   Mostly Cloudy
10:55 AM 46.4 °F 41.1 °F 44.6 °F 93% 29.77 in 9.0 mi SSW 11.5 mph 18.4 mph 0.04 in   Overcast
11:15 AM 46.4 °F 41.1 °F 44.6 °F 93% 29.78 in 9.0 mi SSW 11.5 mph 20.7 mph 0.01 in   Overcast
11:35 AM 46.4 °F 40.4 °F 46.4 °F 100% 29.79 in 10.0 mi South 13.8 mph 19.6 mph 0.03 in   Mostly Cloudy
11:55 AM 46.4 °F 41.1 °F 44.6 °F 93% 29.80 in 9.0 mi South 11.5 mph 23.0 mph 0.03 in   Mostly Cloudy
12:15 PM 48.2 °F - 46.4 °F 93% 29.81 in 10.0 mi SSW 13.8 mph 20.7 mph N/A   Mostly Cloudy
12:35 PM 46.4 °F 39.8 °F 44.6 °F 93% 29.82 in 8.0 mi South 16.1 mph 20.7 mph N/A   Overcast
12:55 PM 48.2 °F - 44.6 °F 87% 29.83 in 10.0 mi South 13.8 mph 23.0 mph 0.01 in   Scattered Clouds
1:15 PM 48.2 °F - 46.4 °F 93% 29.83 in 10.0 mi South 11.5 mph 20.7 mph N/A   Mostly Cloudy
1:35 PM 48.2 °F - 44.6 °F 87% 29.84 in 10.0 mi South 13.8 mph 21.9 mph N/A   Mostly Cloudy
2:15 PM 50.0 °F - 44.6 °F 82% 29.84 in 10.0 mi SSW 18.4 mph 23.0 mph N/A   Mostly Cloudy
2:35 PM 48.2 °F - 44.6 °F 87% 29.85 in 10.0 mi South 13.8 mph 21.9 mph N/A   Overcast
2:55 PM 50.0 °F - 44.6 °F 82% 29.86 in 10.0 mi South 11.5 mph 24.2 mph N/A   Overcast
3:15 PM 48.2 °F - 44.6 °F 87% 29.87 in 10.0 mi South 12.7 mph 19.6 mph N/A   Overcast
3:35 PM 48.2 °F - 42.8 °F 82% 29.87 in 10.0 mi South 11.5 mph 18.4 mph N/A   Overcast
3:55 PM 48.2 °F - 44.6 °F 87% 29.88 in 9.0 mi South 11.5 mph 19.6 mph N/A   Overcast
4:15 PM 46.4 °F 41.1 °F 44.6 °F 93% 29.88 in 10.0 mi South 11.5 mph - N/A   Overcast
4:35 PM 46.4 °F 41.5 °F 44.6 °F 93% 29.89 in 10.0 mi South 10.4 mph 17.3 mph N/A   Mostly Cloudy
4:55 PM 46.4 °F 41.1 °F 44.6 °F 93% 29.88 in 10.0 mi South 11.5 mph - N/A   Mostly Cloudy
5:15 PM 46.4 °F 41.9 °F 44.6 °F 93% 29.89 in 10.0 mi South 9.2 mph - 0.01 in   Mostly Cloudy
5:35 PM 46.4 °F 42.9 °F 44.6 °F 93% 29.90 in 8.0 mi South 6.9 mph - 0.02 in   Overcast
5:55 PM 44.6 °F 39.7 °F 42.8 °F 93% 29.90 in 10.0 mi South 9.2 mph - 0.03 in   Mostly Cloudy
6:35 PM 44.6 °F 41.4 °F 44.6 °F 100% 29.91 in 10.0 mi SSE 5.8 mph - 0.06 in   Overcast
6:55 PM 44.6 °F 40.2 °F 42.8 °F 93% 29.92 in 10.0 mi SSE 8.1 mph - 0.06 in   Scattered Clouds
7:15 PM 44.6 °F 40.2 °F 42.8 °F 93% 29.92 in 10.0 mi SSE 8.1 mph - N/A   Partly Cloudy
7:35 PM 44.6 °F 41.4 °F 42.8 °F 93% 29.93 in 10.0 mi SSE 5.8 mph - N/A   Scattered Clouds
7:55 PM 44.6 °F 40.2 °F 42.8 °F 93% 29.94 in 10.0 mi SSE 8.1 mph - N/A   Overcast
8:15 PM 44.6 °F 40.7 °F 42.8 °F 93% 29.94 in 9.0 mi SSE 6.9 mph - N/A   Mostly Cloudy
8:35 PM 42.8 °F 38.6 °F 42.8 °F 100% 29.95 in 10.0 mi SSE 6.9 mph - N/A   Mostly Cloudy
8:55 PM 42.8 °F 38.6 °F 42.8 °F 100% 29.96 in 10.0 mi SSE 6.9 mph - N/A   Mostly Cloudy
9:15 PM 42.8 °F 38.6 °F 42.8 °F 100% 29.97 in 10.0 mi SSE 6.9 mph - N/A   Scattered Clouds
9:35 PM 42.8 °F 38.0 °F 42.8 °F 100% 29.98 in 10.0 mi SSE 8.1 mph - N/A   Partly Cloudy
9:55 PM 42.8 °F 37.5 °F 41.0 °F 93% 29.98 in 10.0 mi SSE 9.2 mph - N/A   Scattered Clouds
10:15 PM 42.8 °F 38.0 °F 39.2 °F 87% 29.98 in 10.0 mi SSE 8.1 mph - N/A   Scattered Clouds
10:35 PM 42.8 °F 37.0 °F 41.0 °F 93% 29.98 in 10.0 mi SSE 10.4 mph - N/A   Scattered Clouds
10:55 PM 42.8 °F 37.0 °F 41.0 °F 93% 29.99 in 10.0 mi SSE 10.4 mph - N/A   Scattered Clouds
11:15 PM 42.8 °F 37.0 °F 41.0 °F 93% 29.98 in 10.0 mi SSE 10.4 mph - N/A   Mostly Cloudy
11:35 PM 42.8 °F 37.5 °F 39.2 °F 87% 29.99 in 10.0 mi SSE 9.2 mph - N/A   Scattered Clouds
11:55 PM 42.8 °F 38.6 °F 39.2 °F 87% 29.99 in 10.0 mi SSE 6.9 mph - N/A   Scattered Clouds